Weather in Mondy

Russia / Republic of Buryatia     51°40′32″N   100°59′46″E
temp.,
°C
wind,
m/s
gust,
m/s
humid.,
%
clouds,
%
prec.,
mm/h
press.,
hPa
HPBL,
m
27 january, thu
thu2723:00−25nnw33838 0.0 104017
02:00−25nnw33838 0.0 103919
05:00−24nnw338349 0.0 103919
08:00−24nnw3381100 0.0 103919
11:00−19nw227788 0.0 103545
14:00−15sw117296 0.0 1031140
17:00−19nw119098 0.0 103511
20:00−21n2285100 0.0 10379
28 january, fri
fri2823:00−23n2289100 0.0 104010
02:00−23n228799 0.0 103910
05:00−23nne228197 0.0 103810
08:00−24nne228173 0.0 104010
11:00−19ene128260 0.0 103648
14:00−16se227865 0.0 1032282
17:00−20e119798 0.0 10349
20:00−24n229389 0.0 103910
29 january, sat
sat2923:00−25n228710 0.0 104010
02:00−25n328120 0.0 103911
05:00−25nnw338010 0.0 103913
08:00−26nnw33829 0.0 104014
11:00−20nnw227819 0.0 103652
14:00−16wnw226838 0.0 1032236
17:00−20nw228546 0.0 103515
20:00−25nnw43735 0.0 104116
30 january, sun
sun3023:00−26nnw33752 0.0 104315
02:00−27nnw33763 0.0 104314
05:00−27nnw33772 0.0 104416
08:00−27n43771 0.0 104417
11:00−21n227311 0.0 104056
14:00−17nw12620 0.0 1035280
17:00−21nw22830 0.0 103814
20:00−26nnw43710 0.0 104416
31 january, mon
mon3123:00−27nnw33711 0.0 104516
02:00−27nnw33735 0.0 104318
05:00−27nnw33707 0.0 104218
08:00−27nnw33667 0.0 104219
11:00−21nw236511 0.0 103769
14:00−16wnw22615 0.0 1032218
17:00−19nw22807 0.0 103422
20:00−24nnw436732 0.0 104020